Rechercher aéroport 
image banner adimage banner adimage banner ad
image banner ad

CA40 - Central Valley Aviation Inc

Situé à Selma, United States

ICAO - CA40, IATA -

Données fournies par Airmate  

Information générale

Coordonnées: N36°31'17" W119°40'12"
Élévation : 276 feet MSL.
Variation magnétique : 15° East
Voir autres Aéroports à California

Données opérationnelles

Special qualification required
Heure actuelle UTC:
Heure actuelle locale:
Météo à : KHJO - Hanford Muni ( 23 km )
METAR: KHJO 231353Z AUTO 00000KT 10SM CLR 16/11 A2992 RMK AO2 SLP130 T01560106
Voir NOTAMs / SUP AIP / TFR affectant cet aéroport [VIEW]
Fréquences de communication: [VIEW]

Pistes:

Identifiant RWYQFULongueur (ft)Largeur (ft)SurfaceLDA (ft)
N2600150OTHER
S2600150OTHER

Coordonnées de l'aéroport

Adresse: Selma United States

Vue satellite de CA40